Location: Cahoon Acres
(40.8736°N, 111.8994°W)
Time: 18:55:37
(UTC+00:00)

Explorer 7 - All Passes

Search period start: 06 June 2020 00:00
Search period end: 16 June 2020 00:00
Orbit: 485 x 679 km, 50.3° (Epoch: 06 June)

Date Brightness Start Highest point End Pass type
(mag) Time Alt. Az. Time Alt. Az. Time Alt. Az.
06 Jun - 01:53:00 10° SSE 01:55:35 14° SE 01:58:11 10° E daylight
06 Jun - 03:30:43 10° SW 03:35:36 74° SE 03:40:25 10° ENE visible
06 Jun - 05:12:03 10° W 05:16:33 35° NNW 05:20:53 10° NE visible
06 Jun - 06:54:09 10° NW 06:58:06 25° N 07:01:55 10° ENE visible
06 Jun - 08:35:10 10° NW 08:39:34 42° NNE 08:43:43 10° E visible
06 Jun - 10:15:56 10° WNW 10:20:12 45° SW 10:24:11 10° SSE visible
07 Jun - 01:56:19 10° S 02:00:09 23° SE 02:03:58 10° E daylight
07 Jun - 03:35:30 10° WSW 03:40:25 77° NNW 03:45:15 10° NE visible
07 Jun - 05:17:17 10° WNW 05:21:34 30° NNW 05:25:44 10° NE visible
07 Jun - 06:59:09 10° NW 07:03:12 27° N 07:07:04 10° ENE visible
07 Jun - 08:39:57 10° NW 08:44:30 57° NNE 08:48:46 10° ESE visible
07 Jun - 10:21:02 10° WNW 10:24:50 28° SW 10:28:26 10° SSE visible
08 Jun - 02:00:18 10° SSW 02:04:45 36° SE 02:09:12 10° ENE daylight
08 Jun - 03:40:28 10° WSW 03:45:17 55° NNW 03:50:02 10° NE visible
08 Jun - 05:22:30 10° WNW 05:26:39 27° N 05:30:39 10° NE visible
08 Jun - 07:04:05 10° NW 07:08:16 30° NNE 07:12:16 10° ENE visible
08 Jun - 08:44:44 10° NW 08:49:23 84° NE 08:53:41 10° ESE visible
08 Jun - 10:26:29 10° W 10:29:23 17° SW 10:32:11 10° S visible
09 Jun - 02:04:39 10° SW 02:09:26 55° SE 02:14:13 10° ENE daylight
09 Jun - 03:45:34 10° W 03:50:14 42° NNW 03:54:48 10° NE visible
09 Jun - 05:27:40 10° WNW 05:31:44 26° N 05:35:40 10° NE visible
09 Jun - 07:08:55 10° NW 07:13:19 36° NNE 07:17:29 10° E visible
09 Jun - 08:49:35 10° WNW 08:54:09 65° SW 08:58:25 10° SE visible
10 Jun - 00:31:05 10° SSE 00:34:08 17° SE 00:37:12 10° E daylight
10 Jun - 02:09:17 10° SW 02:14:11 83° SE 02:19:06 10° ENE daylight
10 Jun - 03:50:45 10° W 03:55:13 34° NNW 03:59:37 10° NE visible
10 Jun - 05:32:45 10° NW 05:36:50 26° N 05:40:46 10° ENE visible
10 Jun - 07:13:42 10° NW 07:18:17 47° NNE 07:22:36 10° E visible
10 Jun - 08:54:32 10° WNW 08:58:50 40° SW 09:02:54 10° SSE visible
11 Jun - 00:34:39 10° S 00:38:41 26° SE 00:42:46 10° ENE daylight
11 Jun - 02:14:07 10° WSW 02:19:01 70° NNW 02:23:54 10° NE daylight
11 Jun - 03:55:58 10° WNW 04:00:16 29° NNW 04:04:29 10° NE visible
11 Jun - 05:37:44 10° NW 05:41:56 28° N 05:45:57 10° ENE visible
11 Jun - 07:18:29 10° NW 07:23:12 65° NNE 07:27:37 10° ESE visible
11 Jun - 08:59:42 10° WNW 09:03:27 25° SW 09:07:01 10° S visible
12 Jun - 00:38:46 10° SSW 00:43:19 41° SE 00:47:55 10° ENE daylight
12 Jun - 02:19:08 10° WSW 02:23:55 51° NNW 02:28:41 10° NE daylight
12 Jun - 04:01:11 10° WNW 04:05:21 27° N 04:09:26 10° NE visible
12 Jun - 05:42:38 10° NW 05:46:59 32° NNE 05:51:10 10° E visible
12 Jun - 07:23:17 10° WNW 07:28:02 87° SSW 07:32:30 10° SE visible
12 Jun - 09:05:18 10° W 09:07:59 16° SW 09:10:36 10° SSW visible
12 Jun - 23:06:37 10° SE 23:08:10 11° SE 23:09:43 10° ESE daylight
13 Jun - 00:43:12 10° SW 00:48:00 63° SE 00:52:52 10° ENE daylight
13 Jun - 02:24:16 10° W 02:28:52 39° NNW 02:33:28 10° NE daylight
13 Jun - 04:06:19 10° WNW 04:10:27 26° N 04:14:29 10° ENE visible
13 Jun - 05:47:27 10° NW 05:52:00 40° NNE 05:56:21 10° E visible
13 Jun - 07:28:09 10° WNW 07:32:48 57° SW 07:37:09 10° SE visible
13 Jun - 23:09:18 10° S 23:12:39 19° SE 23:16:04 10° E daylight
14 Jun - 00:47:54 10° SW 00:52:47 88° NW 00:57:43 10° ENE daylight
14 Jun - 02:29:27 10° W 02:33:53 33° NNW 02:38:18 10° NE daylight
14 Jun - 04:11:22 10° NW 04:15:32 27° N 04:19:37 10° ENE visible
14 Jun - 05:52:14 10° NW 05:56:57 52° NNE 06:01:27 10° ESE visible
14 Jun - 07:33:09 10° WNW 07:37:28 36° SW 07:41:33 10° SSE visible
14 Jun - 23:13:04 10° SSW 23:17:13 30° SE 23:21:28 10° ENE daylight
15 Jun - 00:52:47 10° WSW 00:57:38 63° NNW 01:02:31 10° NE daylight
15 Jun - 02:34:40 10° WNW 02:38:56 29° N 02:43:11 10° NE daylight
15 Jun - 04:16:19 10° NW 04:20:37 30° N 04:24:49 10° ENE visible
15 Jun - 05:57:01 10° NW 06:01:51 73° NNE 06:06:26 10° ESE visible
15 Jun - 07:38:23 10° W 07:42:03 23° SW 07:45:33 10° S visible
15 Jun - 23:17:17 10° SSW 23:21:52 46° SE 23:26:34 10° ENE daylight
